| time (UTC) | temp C | wind direction | speed KPH | gust KPH | rain 1hr cm | rain 24hr cm | rain mn cm | humidity % | barometer mb |
| 20260507224537 | 20 | 300 | 3.2 | 16.1 | 0.00 | 0.00 | 0.00 | 77 | 1010.4 |
| 20260507223111 | 20 | 258 | 1.6 | 12.9 | 0.00 | 0.00 | 0.00 | 76 | 1010.4 |
| 20260507221540 | 20 | 297 | 6.4 | 16.1 | 0.00 | 0.00 | 0.00 | 76 | 1010.6 |
| 20260507220039 | 21 | 309 | 3.2 | 16.1 | 0.00 | 0.00 | 0.00 | 76 | 1010.4 |
| 20260507214544 | 20 | 316 | 3.2 | 11.3 | 0.00 | 0.00 | 0.00 | 76 | 1010.4 |
| 20260507213037 | 21 | 308 | 3.2 | 19.3 | 0.00 | 0.00 | 0.00 | 76 | 1010.5 |
| 20260507211542 | 21 | 297 | 4.8 | 12.9 | 0.00 | 0.00 | 0.00 | 75 | 1010.5 |
| 20260507210046 | 21 | 316 | 3.2 | 12.9 | 0.00 | 0.00 | 0.00 | 75 | 1010.4 |
| 20260507204542 | 21 | 274 | 1.6 | 14.5 | 0.00 | 0.00 | 0.00 | 74 | 1010.4 |
| 20260507203041 | 21 | 270 | 4.8 | 14.5 | 0.00 | 0.00 | 0.00 | 72 | 1010.7 |
| 20260507201541 | 22 | 279 | 6.4 | 17.7 | 0.00 | 0.00 | 0.00 | 70 | 1010.6 |
| 20260507200054 | 23 | 0 | 8.0 | 17.7 | 0.00 | 0.00 | 0.00 | 68 | 1010.4 |
| 20260507194537 | 23 | 297 | 9.7 | 20.9 | 0.00 | 0.00 | 0.00 | 68 | 1010.6 |
| 20260507193045 | 22 | 244 | 12.9 | 29.0 | 0.00 | 0.00 | 0.00 | 67 | 1010.4 |
| 20260507191537 | 23 | 297 | 8.0 | 27.4 | 0.00 | 0.00 | 0.00 | 68 | 1010.4 |
| 20260507190049 | 22 | 305 | 8.0 | 22.5 | 0.00 | 0.00 | 0.00 | 71 | 1010.2 |
| 20260507184539 | 22 | 261 | 9.7 | 33.8 | 0.00 | 0.00 | 0.00 | 70 | 1010.2 |
| 20260507183040 | 22 | 253 | 11.3 | 25.7 | 0.00 | 0.00 | 0.00 | 70 | 1010.2 |
| 20260507181538 | 22 | 282 | 12.9 | 27.4 | 0.00 | 0.00 | 0.00 | 69 | 1010.2 |
| 20260507180036 | 22 | 287 | 11.3 | 29.0 | 0.00 | 0.00 | 0.00 | 68 | 1010.1 |
| 20260507174553 | 23 | 247 | 14.5 | 38.6 | 0.00 | 0.00 | 0.00 | 66 | 1010.4 |
| 20260507173040 | 23 | 249 | 20.9 | 43.5 | 0.00 | 0.00 | 0.00 | 65 | 1010.4 |
| 20260507171542 | 24 | 237 | 19.3 | 40.2 | 0.00 | 0.00 | 0.00 | 66 | 1010.4 |
| 20260507170044 | 24 | 296 | 22.5 | 35.4 | 0.00 | 0.00 | 0.00 | 67 | 1010.8 |
| 20260507164537 | 24 | 301 | 16.1 | 35.4 | 0.00 | 0.00 | 0.00 | 67 | 1011.1 |
| 20260507163037 | 23 | 345 | 24.1 | 48.3 | 0.00 | 0.00 | 0.00 | 65 | 1011.2 |
| 20260507161551 | 23 | 268 | 20.9 | 37.0 | 0.00 | 0.00 | 0.00 | 65 | 1011.5 |
| 20260507160042 | 23 | 253 | 20.9 | 37.0 | 0.00 | 0.00 | 0.00 | 65 | 1011.6 |
| 20260507154543 | 23 | 330 | 19.3 | 37.0 | 0.00 | 0.00 | 0.00 | 67 | 1011.9 |
| 20260507153042 | 23 | 245 | 17.7 | 41.8 | 0.00 | 0.00 | 0.00 | 67 | 1012.5 |
| 20260507151537 | 23 | 287 | 17.7 | 32.2 | 0.00 | 0.00 | 0.00 | 69 | 1012.7 |
| 20260507150043 | 23 | 301 | 14.5 | 32.2 | 0.00 | 0.00 | 0.00 | 72 | 1012.9 |
| 20260507144539 | 21 | 272 | 11.3 | 25.7 | 0.00 | 0.00 | 0.00 | 77 | 1013.4 |
| 20260507143038 | 21 | 262 | 17.7 | 38.6 | 0.00 | 0.00 | 0.00 | 76 | 1014.0 |
| 20260507141537 | 21 | 249 | 11.3 | 33.8 | 0.00 | 0.00 | 0.00 | 78 | 1014.2 |
| 20260507140038 | 21 | 248 | 20.9 | 37.0 | 0.00 | 0.00 | 0.00 | 78 | 1014.6 |
| 20260507134535 | 21 | 295 | 11.3 | 24.1 | 0.00 | 0.00 | 0.00 | 77 | 1014.9 |
| 20260507133039 | 20 | 284 | 14.5 | 22.5 | 0.00 | 0.00 | 0.00 | 79 | 1015.2 |
| 20260507131538 | 20 | 301 | 11.3 | 22.5 | 0.00 | 0.00 | 0.00 | 80 | 1015.2 |
| 20260507130055 | 21 | 299 | 8.0 | 22.5 | 0.00 | 0.00 | 0.00 | 80 | 1015.5 |
| 20260507124536 | 20 | 287 | 11.3 | 24.1 | 0.00 | 0.00 | 0.00 | 82 | 1015.4 |
| 20260507123041 | 20 | 260 | 11.3 | 20.9 | 0.00 | 0.00 | 0.00 | 84 | 1015.5 |
| 20260507121543 | 19 | 301 | 11.3 | 20.9 | 0.00 | 0.00 | 0.00 | 85 | 1015.6 |
| 20260507120039 | 19 | 302 | 9.7 | 22.5 | 0.00 | 0.00 | 0.00 | 85 | 1015.7 |
| 20260507114539 | 18 | 288 | 6.4 | 17.7 | 0.00 | 0.00 | 0.00 | 87 | 1015.9 |
| 20260507113037 | 18 | 0 | 8.0 | 12.9 | 0.00 | 0.00 | 0.00 | 88 | 1015.9 |
| 20260507111536 | 18 | 341 | 4.8 | 12.9 | 0.00 | 0.00 | 0.00 | 88 | 1015.9 |
| 20260507110043 | 18 | 291 | 3.2 | 11.3 | 0.00 | 0.00 | 0.00 | 88 | 1015.9 |
| 20260507104537 | 17 | 347 | 1.6 | 11.3 | 0.00 | 0.00 | 0.00 | 89 | 1015.8 |
| 20260507103036 | 17 | 0 | 1.6 | 6.4 | 0.00 | 0.00 | 0.00 | 89 | 1015.8 |
| 20260507101542 | 17 | 309 | 1.6 | 8.0 | 0.00 | 0.00 | 0.00 | 90 | 1015.8 |
| 20260507100047 | 17 | 0 | 0.0 | 3.2 | 0.00 | 0.00 | 0.00 | 89 | 1015.8 |
| 20260507094539 | 17 | 0 | 0.0 | 6.4 | 0.00 | 0.00 | 0.00 | 89 | 1015.9 |
| 20260507093039 | 17 | 78 | 0.0 | 9.7 | 0.00 | 0.00 | 0.00 | 89 | 1015.8 |
| 20260507091537 | 17 | 85 | 1.6 | 4.8 | 0.00 | 0.00 | 0.00 | 88 | 1015.7 |
| 20260507090036 | 17 | 39 | 0.0 | 1.6 | 0.00 | 0.00 | 0.00 | 89 | 1015.9 |
| 20260507084544 | 17 | 0 | 0.0 | 6.4 | 0.00 | 0.00 | 0.00 | 89 | 1016.0 |
| 20260507083051 | 17 | 77 | 1.6 | 8.0 | 0.00 | 0.00 | 0.00 | 89 | 1016.0 |
| 20260507081538 | 16 | 62 | 3.2 | 6.4 | 0.00 | 0.00 | 0.00 | 90 | 1016.1 |
| 20260507080038 | 16 | 0 | 0.0 | 4.8 | 0.00 | 0.00 | 0.00 | 90 | 1016.2 |
| 20260507074537 | 16 | 0 | 0.0 | 3.2 | 0.00 | 0.00 | 0.00 | 90 | 1016.3 |
| 20260507073048 | 17 | 0 | 0.0 | 4.8 | 0.00 | 0.00 | 0.00 | 90 | 1016.5 |
| 20260507071539 | 17 | 0 | 0.0 | 9.7 | 0.00 | 0.00 | 0.00 | 89 | 1016.6 |
| 20260507070041 | 17 | 98 | 1.6 | 6.4 | 0.00 | 0.00 | 0.00 | 89 | 1016.7 |
| 20260507064541 | 17 | 131 | 1.6 | 6.4 | 0.00 | 0.00 | 0.00 | 88 | 1016.8 |
| 20260507063041 | 17 | 85 | 0.0 | 9.7 | 0.00 | 0.00 | 0.00 | 88 | 1017.0 |
| 20260507061544 | 17 | 95 | 1.6 | 12.9 | 0.00 | 0.00 | 0.00 | 87 | 1017.2 |
| 20260507060041 | 17 | 31 | 0.0 | 6.4 | 0.00 | 0.00 | 0.00 | 87 | 1017.4 |
| 20260507054541 | 17 | 97 | 1.6 | 9.7 | 0.00 | 0.00 | 0.00 | 86 | 1017.6 |
| 20260507053037 | 17 | 0 | 0.0 | 4.8 | 0.00 | 0.00 | 0.00 | 85 | 1017.7 |
| 20260507051542 | 17 | 0 | 0.0 | 0.0 | 0.00 | 0.00 | 0.00 | 85 | 1018.0 |
| 20260507050040 | 17 | 0 | 0.0 | 0.0 | 0.00 | 0.00 | 0.00 | 86 | 1018.1 |
| 20260507044541 | 17 | 0 | 0.0 | 0.0 | 0.00 | 0.00 | 0.00 | 87 | 1018.5 |
| 20260507043041 | 17 | 0 | 0.0 | 3.2 | 0.00 | 0.00 | 0.00 | 89 | 1018.6 |
| 20260507041545 | 16 | 0 | 0.0 | 0.0 | 0.00 | 0.00 | 0.00 | 92 | 1018.8 |
| 20260507040038 | 16 | 0 | 0.0 | 0.0 | 0.00 | 0.00 | 0.00 | 94 | 1019.0 |
| 20260507034545 | 16 | 0 | 0.0 | 0.0 | 0.00 | 0.00 | 0.00 | 94 | 1019.2 |
| 20260507033040 | 15 | 0 | 0.0 | 0.0 | 0.00 | 0.00 | 0.00 | 94 | 1019.4 |
| 20260507031538 | 15 | 0 | 0.0 | 0.0 | 0.00 | 0.00 | 0.00 | 92 | 1019.5 |
| 20260507030039 | 16 | 0 | 0.0 | 0.0 | 0.00 | 0.00 | 0.00 | 94 | 1019.8 |
| 20260507024538 | 16 | 0 | 0.0 | 1.6 | 0.00 | 0.00 | 0.00 | 95 | 1019.8 |
| 20260507023040 | 15 | 0 | 0.0 | 1.6 | 0.00 | 0.00 | 0.00 | 95 | 1020.1 |
| 20260507021539 | 15 | 0 | 0.0 | 1.6 | 0.00 | 0.00 | 0.00 | 94 | 1020.1 |
| 20260507020052 | 15 | 0 | 0.0 | 0.0 | 0.00 | 0.00 | 0.00 | 94 | 1020.2 |
| 20260507014544 | 15 | 0 | 0.0 | 0.0 | 0.00 | 0.00 | 0.00 | 94 | 1020.4 |
| 20260507013042 | 15 | 0 | 0.0 | 0.0 | 0.00 | 0.00 | 0.00 | 94 | 1020.6 |
| 20260507011537 | 15 | 0 | 0.0 | 0.0 | 0.00 | 0.00 | 0.00 | 93 | 1020.7 |
| 20260507010042 | 15 | 0 | 0.0 | 0.0 | 0.00 | 0.00 | 0.00 | 93 | 1020.7 |
| 20260507004543 | 16 | 0 | 0.0 | 1.6 | 0.00 | 0.00 | 0.00 | 93 | 1020.7 |
| 20260507003038 | 16 | 0 | 0.0 | 0.0 | 0.00 | 0.00 | 0.00 | 93 | 1020.7 |
| 20260507001538 | 16 | 0 | 0.0 | 0.0 | 0.00 | 0.00 | 0.00 | 91 | 1020.8 |
| 20260507000038 | 16 | 0 | 0.0 | 1.6 | 0.00 | 0.00 | 0.00 | 91 | 1020.9 |
| 20260506234543 | 17 | 0 | 0.0 | 1.6 | 0.00 | 0.00 | 0.00 | 91 | 1020.9 |
| 20260506233040 | 17 | 0 | 0.0 | 0.0 | 0.00 | 0.00 | 0.00 | 91 | 1021.0 |
| 20260506231549 | 17 | 0 | 0.0 | 0.0 | 0.00 | 0.00 | 0.00 | 90 | 1021.0 |
| 20260506230052 | 17 | 0 | 0.0 | 0.0 | 0.00 | 0.00 | 0.00 | 90 | 1021.2 |